Hourly Data Report for September 04, 2017

All times are specified in Local Standard Time (LST). Add 1 hour to adjust for Daylight Saving Time where and when it is observed.

ALERT CLIMATE
NUNAVUT

82°30'00.000" N
62°20'00.000" W
65.40 m
2400305
71355
ZLT

Download Data

Hourly Data (September 2017)
Hourly Data Report for September 4, 2017
Temp Definition
°C
Dew Point Temp Definition
°C
Rel Hum Definition
%
Wind Dir Definition
10's deg

Wind Spd Definition
km/h
Visibility Definition
km
Stn Press Definition
kPa
Hmdx Definition


Wind Chill Definition


Weather Definition


TIME
00:00 -7.0 -8.1 92 2 12   100.84   -12 LegendNANA
01:00 -7.4 -8.3 93 1 17   100.84   -14 LegendNANA
02:00 -7.6 -8.4 94 36 14   100.88   -14 LegendNANA
03:00 -7.7 -8.7 92 35 19   100.90   -15 LegendNANA
04:00 -7.7 -8.7 93 36 12   100.94   -13 LegendNANA
05:00 -7.5 -8.9 90 36 16   100.98   -14 LegendNANA
06:00 -7.7 -8.9 91 1 16   101.00   -14 LegendNANA
07:00 -7.8 -9.0 91 1 20   101.01   -15 LegendNANA
08:00 -7.7 -8.5 95 1 14   101.06   -14 LegendNANA
09:00 -7.6 -8.2 96 1 14   101.05   -14 LegendNANA
10:00 -7.7 -8.3 95 3 15   101.07   -14 LegendNANA
11:00 -7.8 -8.5 95 2 13   101.09   -14 LegendNANA
12:00 -7.7 -8.3 95 2 7   101.09   -11 LegendNANA
13:00 -7.6 -8.2 95 1 7   101.11   -11 LegendNANA
14:00 -7.2 -7.8 96 8 6   101.10   -10 LegendNANA
15:00 -6.9 -7.5 96 4 6   101.10   -10 LegendNANA
16:00 -7.0 -7.5 96 4 9   101.09   -11 LegendNANA
17:00 -7.5 -8.1 96 35 6   101.10   -11 LegendNANA
18:00 -6.7 -7.3 96 4 4   101.08   -9 LegendNANA
19:00 -6.7 -7.3 96 1 12   101.07   -12 LegendNANA
20:00 -6.5 -7.0 96 1 12   101.07   -12 LegendNANA
21:00 -6.5 -7.0 96 1 13   101.04   -12 LegendNANA
22:00 -6.4 -6.9 96 1 14   101.03   -12 LegendNANA
23:00 -6.3 -6.8 96 1 13   100.98   -12 LegendNANA

Notes on Data Quality.

Legend

  • E = Estimated
  • M = Missing
  • NA = Not Available
  • ‡ = Partner data that is not subject to review by the National Climate Archives
Date modified: